FW3706 Weather Reports


Display with metric or nautical units.
time (UTC)temp
F
wind
direction
speed
MPH
gust
MPH
rain 1hr
in
rain 24hr
in
rain mn
in
humidity
%
barometer
mb
20260906165016 87 107 0.0 2.0 0.00 0.00 0.00 43 1014.6
20260906164536 87 107 0.0 2.0 0.00 0.00 0.00 43 1014.7
20260906164015 87 107 0.0 2.0 0.00 0.00 0.00 43 1014.7
20260906163506 86 107 0.0 1.0 0.00 0.00 0.00 43 1014.7
20260906163039 86 103 0.0 1.0 0.00 0.00 0.00 44 1014.7
20260906162501 85 103 0.0 3.0 0.00 0.00 0.00 45 1014.7
20260906162008 85 103 0.0 3.0 0.00 0.00 0.00 45 1014.9
20260906161514 85 102 0.0 3.0 0.00 0.00 0.00 45 1014.9
20260906161002 85 100 0.0 2.0 0.00 0.00 0.00 45 1014.9
20260906160508 85 98 0.0 2.0 0.00 0.00 0.00 44 1014.7
20260906160009 85 98 0.0 2.0 0.00 0.00 0.00 44 1014.8
20260906155511 84 98 0.0 2.0 0.00 0.00 0.00 45 1014.9
20260906155009 84 96 0.0 1.0 0.00 0.00 0.00 46 1014.9
20260906154515 84 95 0.0 1.0 0.00 0.00 0.00 47 1014.9
20260906154004 83 96 0.0 3.0 0.00 0.00 0.00 47 1014.9
20260906153506 83 96 0.0 3.0 0.00 0.00 0.00 49 1014.9
20260906153008 83 98 0.0 3.0 0.00 0.00 0.00 49 1015.0
20260906152500 83 98 0.0 4.0 0.00 0.00 0.00 48 1015.0
20260906152008 82 99 0.0 5.0 0.00 0.00 0.00 49 1015.1
20260906151510 82 84 1.0 4.0 0.00 0.00 0.00 48 1015.1
20260906151006 82 77 0.0 3.0 0.00 0.00 0.00 50 1015.0
20260906150518 82 1 0.0 3.0 0.00 0.00 0.00 50 1015.0
20260906150036 82 360 0.0 3.0 0.00 0.00 0.00 49 1015.0
20260906145513 82 360 0.0 3.0 0.00 0.00 0.00 49 1015.0
20260906145009 82 347 0.0 1.0 0.00 0.00 0.00 50 1015.0
20260906144535 82 347 0.0 1.0 0.00 0.00 0.00 50 1015.0
20260906144011 81 15 0.0 0.0 0.00 0.00 0.00 53 1015.0
20260906143508 80 16 0.0 0.0 0.00 0.00 0.00 54 1015.0
20260906143035 80 13 0.0 0.0 0.00 0.00 0.00 56 1015.0
20260906142511 79 10 0.0 0.0 0.00 0.00 0.00 58 1014.9
20260906142019 79 360 0.0 0.0 0.00 0.00 0.00 59 1014.9
20260906141509 78 360 0.0 1.0 0.00 0.00 0.00 59 1014.7
20260906141013 78 360 0.0 1.0 0.00 0.00 0.00 58 1014.7
20260906140516 78 360 0.0 1.0 0.00 0.00 0.00 58 1014.6
20260906140033 78 360 0.0 1.0 0.00 0.00 0.00 58 1014.5
20260906135515 78 360 0.0 0.0 0.00 0.00 0.00 58 1014.5
20260906135022 78 360 0.0 0.0 0.00 0.00 0.00 58 1014.5
20260906134509 78 10 0.0 0.0 0.00 0.00 0.00 57 1014.5
20260906134012 78 10 0.0 1.0 0.00 0.00 0.00 57 1014.3
20260906133509 78 10 0.0 1.0 0.00 0.00 0.00 56 1014.3
20260906133007 78 10 0.0 1.0 0.00 0.00 0.00 56 1014.3
20260906132513 78 10 0.0 1.0 0.00 0.00 0.00 56 1014.3
20260906132010 78 10 0.0 0.0 0.00 0.00 0.00 54 1014.3
20260906131515 78 10 0.0 0.0 0.00 0.00 0.00 54 1014.2
20260906131013 78 10 0.0 1.0 0.00 0.00 0.00 54 1014.2
20260906130508 78 10 0.0 2.0 0.00 0.00 0.00 54 1014.2
20260906130010 78 10 0.0 2.0 0.00 0.00 0.00 55 1014.2
20260906125514 78 10 0.0 1.0 0.00 0.00 0.00 55 1014.2
20260906125008 78 11 0.0 1.0 0.00 0.00 0.00 56 1014.2
20260906124509 78 360 0.0 1.0 0.00 0.00 0.00 56 1014.1
20260906124014 78 360 0.0 1.0 0.00 0.00 0.00 56 1014.0
20260906123508 79 360 0.0 1.0 0.00 0.00 0.00 55 1014.0
20260906123010 79 360 0.0 2.0 0.00 0.00 0.00 54 1014.1
20260906122513 79 360 0.0 2.0 0.00 0.00 0.00 53 1014.0
20260906122009 80 360 0.0 2.0 0.00 0.00 0.00 52 1014.0
20260906121511 80 360 0.0 2.0 0.00 0.00 0.00 51 1014.0
20260906121015 80 360 0.0 3.0 0.00 0.00 0.00 51 1013.8
20260906120507 80 360 0.0 3.0 0.00 0.00 0.00 51 1013.8
20260906120034 80 360 0.0 3.0 0.00 0.00 0.00 52 1013.8
20260906115515 80 360 0.0 3.0 0.00 0.00 0.00 52 1013.8
20260906115011 80 360 0.0 3.0 0.00 0.00 0.00 52 1013.8
20260906114510 80 360 0.0 3.0 0.00 0.00 0.00 51 1013.8
20260906114018 80 360 0.0 2.0 0.00 0.00 0.00 50 1013.7
20260906113509 80 360 0.0 4.0 0.00 0.00 0.00 50 1013.7
20260906113010 80 360 0.0 4.0 0.00 0.00 0.00 50 1013.6
20260906112515 80 360 0.0 4.0 0.00 0.00 0.00 49 1013.6
20260906112008 80 360 1.0 4.0 0.00 0.00 0.00 49 1013.6
20260906111511 80 360 0.0 2.0 0.00 0.00 0.00 49 1013.5
20260906111012 80 360 0.0 5.0 0.00 0.00 0.00 49 1013.5
20260906110514 80 360 1.0 5.0 0.00 0.00 0.00 48 1013.5
20260906110009 80 360 1.0 5.0 0.00 0.00 0.00 48 1013.4
20260906105512 80 360 1.0 6.0 0.00 0.00 0.00 48 1013.4
20260906105007 80 360 1.0 6.0 0.00 0.00 0.00 48 1013.4
20260906104517 80 360 2.0 6.0 0.00 0.00 0.00 48 1013.3
20260906104014 80 360 1.0 7.0 0.00 0.00 0.00 49 1013.3
20260906103509 80 360 2.0 7.0 0.00 0.00 0.00 50 1013.4
20260906103010 80 360 1.0 6.0 0.00 0.00 0.00 51 1013.4
20260906102515 81 360 0.0 5.0 0.00 0.00 0.00 50 1013.4
20260906102008 81 360 1.0 5.0 0.00 0.00 0.00 48 1013.3
20260906101508 81 360 0.0 5.0 0.00 0.00 0.00 48 1013.3
20260906101012 81 360 1.0 5.0 0.00 0.00 0.00 47 1013.3
20260906100508 81 360 2.0 5.0 0.00 0.00 0.00 47 1013.3
20260906100011 81 360 2.0 6.0 0.00 0.00 0.00 47 1013.3
20260906095511 80 360 1.0 6.0 0.00 0.00 0.00 47 1013.2
20260906095008 81 360 1.0 5.0 0.00 0.00 0.00 48 1013.2
20260906094538 81 360 0.0 5.0 0.00 0.00 0.00 47 1013.2
20260906094016 81 360 1.0 4.0 0.00 0.00 0.00 46 1013.2
20260906093511 82 360 1.0 3.0 0.00 0.00 0.00 45 1013.2
20260906093038 82 360 0.0 3.0 0.00 0.00 0.00 44 1013.1
20260906092512 82 360 0.0 2.0 0.00 0.00 0.00 44 1013.1
20260906092012 82 360 0.0 3.0 0.00 0.00 0.00 45 1013.1
20260906091529 82 360 0.0 5.0 0.00 0.00 0.00 46 1013.1
20260906091012 82 360 0.0 5.0 0.00 0.00 0.00 47 1013.2
20260906090508 82 360 0.0 4.0 0.00 0.00 0.00 47 1013.2
20260906090031 81 360 0.0 3.0 0.00 0.00 0.00 48 1013.2
20260906085511 81 360 0.0 3.0 0.00 0.00 0.00 49 1013.3
20260906085008 81 360 0.0 3.0 0.00 0.00 0.00 49 1013.3
20260906084545 81 360 0.0 3.0 0.00 0.00 0.00 50 1013.3
20260906084015 81 360 0.0 1.0 0.00 0.00 0.00 50 1013.3
20260906083508 81 360 0.0 1.0 0.00 0.00 0.00 50 1013.3
20260906083036 82 360 0.0 1.0 0.00 0.00 0.00 49 1013.3
20260906082512 82 360 0.0 5.0 0.00 0.00 0.00 49 1013.3
20260906082008 82 360 0.0 5.0 0.00 0.00 0.00 49 1013.3
20260906081531 82 360 0.0 4.0 0.00 0.00 0.00 48 1013.4
20260906081012 82 360 1.0 4.0 0.00 0.00 0.00 48 1013.4
20260906080511 83 360 0.0 4.0 0.00 0.00 0.00 47 1013.4
20260906080035 83 360 1.0 4.0 0.00 0.00 0.00 47 1013.4
20260906075515 83 360 0.0 6.0 0.00 0.00 0.00 46 1013.5
20260906075007 83 360 1.0 6.0 0.00 0.00 0.00 46 1013.5
20260906074533 83 360 1.0 6.0 0.00 0.00 0.00 46 1013.5
20260906074014 84 360 0.0 5.0 0.00 0.00 0.00 45 1013.5
20260906073509 84 360 0.0 4.0 0.00 0.00 0.00 45 1013.5
20260906073039 85 360 0.0 2.0 0.00 0.00 0.00 42 1013.5
20260906072513 85 360 0.0 3.0 0.00 0.00 0.00 42 1013.5
20260906072007 85 360 0.0 5.0 0.00 0.00 0.00 42 1013.5
20260906071508 85 360 1.0 5.0 0.00 0.00 0.00 41 1013.6
20260906071012 85 360 0.0 5.0 0.00 0.00 0.00 41 1013.6
20260906070515 85 360 0.0 4.0 0.00 0.00 0.00 41 1013.7
20260906070010 85 360 0.0 2.0 0.00 0.00 0.00 41 1013.7
20260906065512 85 360 0.0 2.0 0.00 0.00 0.00 41 1013.6
20260906065010 85 360 0.0 1.0 0.00 0.00 0.00 41 1013.6
20260906064518 85 360 0.0 2.0 0.00 0.00 0.00 42 1013.6
20260906064013 85 360 0.0 3.0 0.00 0.00 0.00 42 1013.6
20260906063508 85 360 1.0 3.0 0.00 0.00 0.00 41 1013.7
20260906063012 86 360 0.0 1.0 0.00 0.00 0.00 41 1013.6
20260906062513 86 360 0.0 1.0 0.00 0.00 0.00 41 1013.7
20260906062008 87 360 0.0 1.0 0.00 0.00 0.00 40 1013.6
20260906061513 87 9 0.0 4.0 0.00 0.00 0.00 40 1013.7
20260906061018 87 9 0.0 7.0 0.00 0.00 0.00 39 1013.7
20260906060509 87 9 1.0 7.0 0.00 0.00 0.00 39 1013.7
20260906060011 87 9 2.0 6.0 0.00 0.00 0.00 39 1013.6
20260906055514 87 8 1.0 6.0 0.00 0.00 0.00 40 1013.7
20260906055007 87 8 2.0 6.0 0.00 0.00 0.00 40 1013.8
20260906054514 87 8 1.0 5.0 0.00 0.00 0.00 40 1013.8
20260906054012 87 8 2.0 5.0 0.00 0.00 0.00 41 1013.8
20260906053509 87 8 0.0 6.0 0.00 0.00 0.00 40 1013.8
20260906053010 87 8 0.0 6.0 0.00 0.00 0.00 40 1013.9
20260906052514 87 8 1.0 7.0 0.00 0.00 0.00 40 1014.0
20260906052010 87 8 2.0 7.0 0.00 0.00 0.00 41 1013.9
20260906051508 87 8 1.0 5.0 0.00 0.00 0.00 41 1013.9
20260906051013 87 8 0.0 6.0 0.00 0.00 0.00 41 1014.0
20260906050508 87 8 0.0 6.0 0.00 0.00 0.00 41 1014.0
20260906050009 87 8 1.0 6.0 0.00 0.00 0.00 41 1014.0
20260906045513 88 8 1.0 6.0 0.00 0.00 0.00 41 1014.0
20260906045008 88 8 0.0 3.0 0.00 0.00 0.00 40 1014.0
20260906044514 88 8 0.0 3.0 0.00 0.00 0.00 40 1014.0
20260906044013 88 8 1.0 5.0 0.00 0.00 0.00 39 1013.9
20260906043507 89 8 1.0 5.0 0.00 0.00 0.00 39 1013.9
20260906043033 89 8 0.0 3.0 0.00 0.00 0.00 39 1013.9
20260906042512 89 8 0.0 3.0 0.00 0.00 0.00 38 1013.9
20260906042008 89 8 0.0 5.0 0.00 0.00 0.00 38 1013.9
20260906041531 89 9 1.0 5.0 0.00 0.00 0.00 38 1013.9
20260906041016 89 8 2.0 5.0 0.00 0.00 0.00 38 1013.9
20260906040508 89 9 1.0 5.0 0.00 0.00 0.00 38 1013.9
20260906040037 90 8 2.0 5.0 0.00 0.00 0.00 38 1013.9
20260906035511 90 8 1.0 5.0 0.00 0.00 0.00 38 1013.9
20260906035007 90 9 1.0 6.0 0.00 0.00 0.00 38 1013.8
20260906034542 90 8 1.0 8.0 0.00 0.00 0.00 38 1013.8
20260906034013 90 9 1.0 8.0 0.00 0.00 0.00 38 1013.8
20260906033508 90 9 2.0 7.0 0.00 0.00 0.00 38 1013.7
20260906033032 90 9 2.0 10.0 0.00 0.00 0.00 38 1013.5
20260906032512 90 8 4.0 10.0 0.00 0.00 0.00 38 1013.6
20260906032008 90 8 1.0 7.0 0.00 0.00 0.00 38 1013.5
20260906031534 90 8 3.0 7.0 0.00 0.00 0.00 38 1013.4
20260906031012 90 10 2.0 6.0 0.00 0.00 0.00 38 1013.4
20260906030510 90 9 1.0 5.0 0.00 0.00 0.00 38 1013.3
20260906030032 90 9 2.0 5.0 0.00 0.00 0.00 38 1013.3
20260906025514 90 8 0.0 5.0 0.00 0.00 0.00 38 1013.3
20260906025010 90 8 1.0 5.0 0.00 0.00 0.00 38 1013.2
20260906024534 90 8 1.0 5.0 0.00 0.00 0.00 38 1013.1
20260906024013 90 8 1.0 5.0 0.00 0.00 0.00 37 1013.0
20260906023510 91 8 1.0 4.0 0.00 0.00 0.00 37 1013.0
20260906023030 91 8 1.0 5.0 0.00 0.00 0.00 36 1012.9
20260906022512 91 8 1.0 5.0 0.00 0.00 0.00 36 1012.8
20260906022014 91 8 1.0 6.0 0.00 0.00 0.00 36 1012.8
20260906021532 91 8 1.0 6.0 0.00 0.00 0.00 35 1012.7
20260906021014 92 8 2.0 5.0 0.00 0.00 0.00 35 1012.8
20260906020510 92 8 1.0 7.0 0.00 0.00 0.00 35 1012.8
20260906020038 92 8 2.0 7.0 0.00 0.00 0.00 35 1012.9
20260906015512 92 8 2.0 6.0 0.00 0.00 0.00 34 1012.9
20260906015008 92 9 3.0 7.0 0.00 0.00 0.00 34 1012.9
20260906014543 92 8 2.0 7.0 0.00 0.00 0.00 34 1012.8
20260906014018 93 296 3.0 7.0 0.00 0.00 0.00 34 1012.8
20260906013511 93 266 2.0 8.0 0.00 0.00 0.00 34 1012.9
20260906013033 93 297 4.0 10.0 0.00 0.00 0.00 34 1012.8
20260906012511 93 269 2.0 10.0 0.00 0.00 0.00 34 1012.8
20260906012007 94 285 3.0 11.0 0.00 0.00 0.00 34 1012.8
20260906011538 94 280 3.0 11.0 0.00 0.00 0.00 34 1012.8
20260906011011 94 309 4.0 10.0 0.00 0.00 0.00 33 1012.8
20260906010509 94 269 3.0 9.0 0.00 0.00 0.00 33 1012.8
20260906010035 94 257 3.0 11.0 0.00 0.00 0.00 33 1012.9
20260906005513 94 243 5.0 11.0 0.00 0.00 0.00 33 1012.8
20260906005010 95 311 4.0 10.0 0.00 0.00 0.00 33 1012.7
20260906004538 95 281 4.0 10.0 0.00 0.00 0.00 33 1012.8
20260906004015 95 255 4.0 12.0 0.00 0.00 0.00 33 1012.8
20260906003508 95 283 6.0 12.0 0.00 0.00 0.00 33 1012.8
20260906003046 96 292 3.0 12.0 0.00 0.00 0.00 32 1012.8
20260906002512 96 239 3.0 12.0 0.00 0.00 0.00 33 1012.7
20260906002010 96 269 5.0 11.0 0.00 0.00 0.00 32 1012.8
20260906001531 96 295 6.0 10.0 0.00 0.00 0.00 32 1012.7
20260906001011 96 235 4.0 10.0 0.00 0.00 0.00 32 1012.7
20260906000511 96 269 6.0 10.0 0.00 0.00 0.00 32 1012.6
20260906000033 97 245 3.0 12.0 0.00 0.00 0.00 32 1012.6
20260905235512 96 280 5.0 12.0 0.00 0.00 0.00 32 1012.6
20260905235009 96 269 5.0 10.0 0.00 0.00 0.00 32 1012.6
20260905234530 96 260 5.0 13.0 0.00 0.00 0.00 32 1012.6
20260905234013 96 243 6.0 13.0 0.00 0.00 0.00 32 1012.6
20260905233519 97 252 5.0 14.0 0.00 0.00 0.00 31 1012.6
20260905233031 97 238 7.0 14.0 0.00 0.00 0.00 31 1012.6
20260905232513 97 244 4.0 13.0 0.00 0.00 0.00 31 1012.7
20260905232022 97 298 6.0 13.0 0.00 0.00 0.00 32 1012.7
20260905231537 96 319 5.0 14.0 0.00 0.00 0.00 32 1012.8
20260905231011 97 282 6.0 13.0 0.00 0.00 0.00 31 1012.9
20260905230518 97 328 4.0 11.0 0.00 0.00 0.00 31 1012.8
20260905230035 97 277 5.0 12.0 0.00 0.00 0.00 31 1012.8
20260905225513 97 250 6.0 12.0 0.00 0.00 0.00 32 1012.9
20260905225019 98 253 4.0 12.0 0.00 0.00 0.00 32 1012.9
20260905224534 97 257 3.0 12.0 0.00 0.00 0.00 31 1012.8
20260905224013 97 300 3.0 10.0 0.00 0.00 0.00 31 1012.9
20260905223518 97 325 5.0 11.0 0.00 0.00 0.00 30 1013.1
20260905223032 97 259 2.0 16.0 0.00 0.00 0.00 31 1013.1
20260905222514 98 233 7.0 16.0 0.00 0.00 0.00 30 1013.2
20260905222018 98 217 3.0 9.0 0.00 0.00 0.00 30 1013.2
20260905221530 97 322 3.0 10.0 0.00 0.00 0.00 30 1013.3
20260905221014 98 279 3.0 11.0 0.00 0.00 0.00 30 1013.3
20260905220502 97 261 4.0 11.0 0.00 0.00 0.00 31 1013.3
20260905220006 97 234 6.0 12.0 0.00 0.00 0.00 30 1013.4
20260905215502 98 227 5.0 10.0 0.00 0.00 0.00 30 1013.5
20260905215003 98 264 3.0 11.0 0.00 0.00 0.00 30 1013.6
20260905214504 98 269 4.0 11.0 0.00 0.00 0.00 30 1013.6
20260905214004 97 238 0.0 10.0 0.00 0.00 0.00 31 1013.7
20260905213503 97 261 3.0 10.0 0.00 0.00 0.00 31 1013.8
20260905213005 98 255 5.0 10.0 0.00 0.00 0.00 30 1013.8
20260905212501 98 243 3.0 10.0 0.00 0.00 0.00 31 1013.9
20260905212001 96 257 3.0 9.0 0.00 0.00 0.00 31 1013.9
20260905211504 97 259 4.0 9.0 0.00 0.00 0.00 31 1013.9
20260905211006 97 269 1.0 9.0 0.00 0.00 0.00 32 1014.0
20260905210504 96 327 3.0 9.0 0.00 0.00 0.00 32 1014.0
20260905210010 97 285 4.0 9.0 0.00 0.00 0.00 32 1014.1
20260905205504 97 226 2.0 8.0 0.00 0.00 0.00 32 1014.1
20260905205007 98 231 4.0 10.0 0.00 0.00 0.00 31 1014.2
20260905204506 98 233 3.0 10.0 0.00 0.00 0.00 31 1014.3
20260905204007 98 237 2.0 7.0 0.00 0.00 0.00 31 1014.3
20260905203502 98 236 2.0 7.0 0.00 0.00 0.00 30 1014.5
20260905203005 98 249 3.0 8.0 0.00 0.00 0.00 32 1014.5
20260905202504 97 271 1.0 8.0 0.00 0.00 0.00 32 1014.7
20260905202006 97 271 1.0 7.0 0.00 0.00 0.00 33 1014.8
20260905201505 96 219 4.0 8.0 0.00 0.00 0.00 33 1014.8
20260905201004 96 234 1.0 9.0 0.00 0.00 0.00 33 1014.8
20260905200504 95 279 5.0 9.0 0.00 0.00 0.00 33 1014.9
20260905200006 96 201 3.0 8.0 0.00 0.00 0.00 34 1015.0
20260905195501 96 229 4.0 8.0 0.00 0.00 0.00 33 1015.0
20260905195001 95 203 2.0 6.0 0.00 0.00 0.00 33 1015.2
20260905194507 95 210 2.0 9.0 0.00 0.00 0.00 34 1015.3
20260905194005 95 278 2.0 11.0 0.00 0.00 0.00 35 1015.3
20260905193507 95 304 6.0 11.0 0.00 0.00 0.00 34 1015.3
20260905193006 96 285 2.0 8.0 0.00 0.00 0.00 34 1015.4
20260905192504 97 207 3.0 8.0 0.00 0.00 0.00 33 1015.5
20260905192004 96 255 3.0 8.0 0.00 0.00 0.00 34 1015.6
20260905191506 96 207 3.0 7.0 0.00 0.00 0.00 34 1015.5
20260905191004 95 294 0.0 9.0 0.00 0.00 0.00 34 1015.7
20260905190011 94 247 3.0 10.0 0.00 0.00 0.00 35 1015.8
20260905185503 94 280 4.0 8.0 0.00 0.00 0.00 36 1015.9
20260905185005 95 288 2.0 6.0 0.00 0.00 0.00 36 1016.0
20260905184537 94 239 2.0 7.0 0.00 0.00 0.00 36 1016.1
20260905184004 94 283 2.0 10.0 0.00 0.00 0.00 37 1016.2
20260905183505 93 252 3.0 10.0 0.00 0.00 0.00 38 1016.1
20260905183003 93 199 1.0 6.0 0.00 0.00 0.00 37 1016.2
20260905182504 93 195 1.0 8.0 0.00 0.00 0.00 37 1016.3
20260905182004 93 287 2.0 8.0 0.00 0.00 0.00 37 1016.2
20260905181509 93 258 2.0 7.0 0.00 0.00 0.00 38 1016.4
20260905181004 93 238 2.0 7.0 0.00 0.00 0.00 38 1016.4
20260905180507 93 274 4.0 7.0 0.00 0.00 0.00 37 1016.4
20260905180011 93 236 2.0 7.0 0.00 0.00 0.00 39 1016.4
20260905175506 92 267 2.0 7.0 0.00 0.00 0.00 40 1016.4
20260905175006 91 299 3.0 8.0 0.00 0.00 0.00 41 1016.4
20260905174509 91 259 4.0 8.0 0.00 0.00 0.00 41 1016.5
20260905174004 91 252 0.0 7.0 0.00 0.00 0.00 42 1016.6
20260905173505 91 238 2.0 6.0 0.00 0.00 0.00 41 1016.6
20260905173010 91 274 1.0 6.0 0.00 0.00 0.00 41 1016.6
20260905172504 91 257 2.0 6.0 0.00 0.00 0.00 41 1016.6
20260905172006 90 250 1.0 5.0 0.00 0.00 0.00 43 1016.6
20260905171513 90 210 0.0 4.0 0.00 0.00 0.00 44 1016.7
20260905171007 90 210 1.0 3.0 0.00 0.00 0.00 45 1016.7
20260905170506 89 187 2.0 6.0 0.00 0.00 0.00 46 1016.7
20260905170013 89 182 2.0 6.0 0.00 0.00 0.00 47 1016.8
20260905165507 89 169 0.0 3.0 0.00 0.00 0.00 46 1016.8